User: anonymous   Login
Location: Unspecified
(0.0000°N, 0.0000°E)
Time: 12:16:15
(UTC+00:00)
Language:

UCLSAT - Orbit

View from above orbital plane
View from above orbital plane
View from above satellite
View from above satellite

Ground track
Ground track

The orbit data is extracted from the following two-line orbital elements,

1 42765U 17036A   23270.66826387  .00164577  00000-0  14185-2 0  9992
2 42765  97.1279 309.9080 0004830  90.4967 269.6849 15.68751776349250
Epoch (UTC): 27 September 2023 16:02:17
Eccentricity: 0.0004830
inclination: 97.1279°
perigee height: 359 km
apogee height: 366 km
right ascension of ascending node: 309.9080°
argument of perigee: 90.4967°
revolutions per day: 15.68751776
mean anomaly at epoch: 269.6849°
orbit number at epoch: 34925

The dashed part of the orbit path shows where the satellite is in the earth's shadow,  

DLR